W4KAB Weather Reports


time (UTC)temp
C
wind
direction
speed
KPH
gust
KPH
rain 1hr
cm
rain 24hr
cm
rain mn
cm
humidity
%
barometer
mb
20260906093231 20 287 0.0 0.0 0.00 0.00 0.00 99 1014.4
20260906092727 20 255 0.0 0.0 0.00 0.00 0.00 99 1014.4
20260906092226 20 253 0.0 0.0 0.00 0.00 0.00 99 1014.1
20260906091722 20 249 0.0 0.0 0.00 0.00 0.00 99 1014.3
20260906091218 20 246 0.0 0.0 0.00 0.00 0.00 99 1014.3
20260906090715 20 246 0.0 0.0 0.00 0.00 0.00 99 1014.1
20260906090214 20 253 0.0 0.0 0.00 0.00 0.00 99 1014.3
20260906085713 20 253 0.0 0.0 0.00 0.00 0.00 99 1014.3
20260906085212 20 241 0.0 0.0 0.00 0.00 0.00 99 1013.9
20260906084707 20 106 0.0 0.0 0.00 0.00 0.00 99 1014.3
20260906084201 20 106 0.0 0.0 0.00 0.00 0.00 99 1014.3
20260906083656 20 80 0.0 0.0 0.00 0.00 0.00 99 1014.0
20260906083151 20 46 0.0 0.0 0.00 0.00 0.00 99 1014.2
20260906082646 20 248 0.0 0.0 0.00 0.00 0.00 99 1014.0
20260906082142 20 249 0.0 0.0 0.00 0.00 0.00 99 1014.0
20260906081638 20 257 0.0 0.0 0.00 0.00 0.00 99 1014.1
20260906081133 20 254 0.0 0.0 0.00 0.00 0.00 99 1014.0
20260906080629 20 258 0.0 0.0 0.00 0.00 0.00 99 1014.1
20260906080125 20 255 0.0 0.0 0.00 0.00 0.00 99 1014.1
20260906075624 20 258 0.0 0.0 0.00 0.00 0.00 99 1014.2
20260906075119 20 239 0.0 0.0 0.00 0.00 0.00 99 1014.2
20260906074615 20 239 0.0 0.0 0.00 0.00 0.00 99 1014.1
20260906074113 20 258 0.0 0.0 0.00 0.00 0.00 99 1014.0
20260906073608 20 272 0.0 0.0 0.00 0.00 0.00 99 1013.9
20260906073104 20 253 0.0 0.0 0.00 0.00 0.00 99 1013.9
20260906072558 20 252 0.0 0.0 0.00 0.00 0.00 99 1013.5
20260906072055 20 244 0.0 0.0 0.00 0.00 0.00 99 1013.4
20260906071551 20 253 0.0 0.0 0.00 0.00 0.00 99 1013.5
20260906071045 20 251 0.0 0.0 0.00 0.00 0.00 99 1013.8
20260906070542 20 258 0.0 0.0 0.00 0.00 0.00 99 1014.0
20260906070038 20 258 0.0 0.0 0.00 0.00 0.00 99 1014.0
20260906065537 20 260 0.0 0.0 0.00 0.00 0.00 99 1014.4
20260906065033 21 305 0.0 0.0 0.00 0.00 0.00 99 1014.2
20260906064528 21 246 0.0 0.0 0.00 0.00 0.00 99 1014.4
20260906064023 21 246 0.0 0.0 0.00 0.00 0.00 99 1014.5
20260906063518 21 239 0.0 0.0 0.00 0.00 0.00 99 1014.5
20260906063014 21 259 0.0 0.0 0.00 0.00 0.00 99 1014.8
20260906062508 21 257 0.0 0.0 0.00 0.00 0.00 99 1014.7
20260906061958 21 258 0.0 0.0 0.00 0.00 0.00 99 1014.7
20260906061454 21 250 0.0 0.0 0.00 0.00 0.00 99 1014.8
20260906060954 21 248 0.0 0.0 0.00 0.00 0.00 99 1015.0
20260906060451 21 248 0.0 0.0 0.00 0.00 0.00 99 1014.9
20260906055947 21 256 0.0 0.0 0.00 0.00 0.00 99 1014.8
20260906055443 21 256 0.0 0.0 0.00 0.00 0.00 99 1015.0
20260906054938 21 251 0.0 0.0 0.00 0.00 0.00 99 1014.9
20260906054432 21 255 0.0 0.0 0.00 0.00 0.00 99 1015.0
20260906053928 21 249 0.0 0.0 0.00 0.00 0.00 99 1014.7
20260906053424 21 237 0.0 0.0 0.00 0.00 0.00 99 1014.9
20260906052920 21 237 0.0 0.0 0.00 0.00 0.00 99 1014.8
20260906052416 21 215 0.0 0.0 0.00 0.00 0.00 99 1014.9
20260906051913 21 205 0.0 0.0 0.00 0.00 0.00 99 1014.9
20260906051412 21 249 0.0 0.0 0.00 0.00 0.00 99 1015.1
20260906050908 21 250 0.0 0.0 0.00 0.00 0.00 99 1014.8
20260906050403 21 249 0.0 0.0 0.00 0.00 0.00 99 1015.1
20260906045901 21 249 0.0 0.0 0.00 0.00 0.00 99 1015.1
20260906045355 21 254 0.0 0.0 0.00 0.00 0.00 99 1015.1
20260906044852 21 256 0.0 0.0 0.00 0.00 0.00 99 1015.0
20260906044352 21 249 0.0 0.0 0.00 0.00 0.00 99 1015.0
20260906043847 21 255 0.0 0.0 0.00 0.00 0.00 98 1015.2
20260906043344 21 277 0.0 0.0 0.00 0.00 0.00 98 1015.2
20260906042839 21 251 0.0 0.0 0.00 0.00 0.00 98 1015.4
20260906042337 21 257 0.0 0.0 0.00 0.00 0.00 98 1015.3
20260906041833 22 251 0.0 0.0 0.00 0.00 0.00 98 1015.2
20260906041329 21 245 0.0 0.0 0.00 0.00 0.00 98 1015.0
20260906040828 21 205 0.0 0.0 0.00 0.00 0.00 98 1015.1
20260906040324 22 245 0.0 0.0 0.00 0.00 0.00 98 1015.2
20260906035819 22 253 0.0 0.0 0.00 0.03 0.03 98 1015.2
20260906035314 22 255 0.0 0.0 0.00 0.03 0.03 98 1015.1
20260906034809 22 255 0.0 0.0 0.00 0.03 0.03 98 1015.1
20260906034304 22 249 0.0 0.0 0.00 0.03 0.03 97 1015.1
20260906033800 22 248 0.0 0.0 0.00 0.03 0.03 98 1015.5
20260906033259 22 229 0.0 0.0 0.00 0.03 0.03 97 1015.5
20260906032756 22 254 0.0 0.0 0.00 0.03 0.03 97 1015.4
20260906032256 22 251 0.0 0.0 0.00 0.03 0.03 97 1015.2
20260906031751 22 261 0.0 0.0 0.00 0.03 0.03 97 1015.2
20260906031247 22 237 0.0 0.0 0.00 0.03 0.03 97 1015.4
20260906030746 22 246 0.0 0.0 0.00 0.03 0.03 97 1015.5
20260906030242 22 253 0.0 0.0 0.00 0.03 0.03 97 1015.2
20260906025741 22 248 0.0 0.0 0.00 0.03 0.03 96 1015.4
20260906025235 22 242 0.0 0.0 0.00 0.03 0.03 96 1015.2
20260906024734 22 257 0.0 0.0 0.00 0.03 0.03 96 1015.1
20260906024234 22 273 0.0 0.0 0.00 0.03 0.03 96 1015.1
20260906023730 22 256 0.0 0.0 0.00 0.03 0.03 96 1014.9
20260906023225 22 212 0.0 0.0 0.00 0.03 0.03 97 1015.1
20260906022720 22 252 0.0 0.0 0.00 0.03 0.03 97 1015.2
20260906022215 22 255 0.0 0.0 0.00 0.03 0.03 97 1015.0
20260906021712 22 252 0.0 0.0 0.00 0.03 0.03 97 1015.0
20260906021210 22 252 0.0 0.0 0.00 0.03 0.03 96 1015.0
20260906020705 22 260 0.0 0.0 0.00 0.03 0.03 96 1014.9
20260906020200 22 248 0.0 0.0 0.00 0.03 0.03 96 1014.9
20260906015654 22 243 0.0 0.0 0.00 0.03 0.03 96 1015.0
20260906015153 22 255 0.0 0.0 0.00 0.03 0.03 95 1014.9
20260906014653 22 248 0.0 0.0 0.00 0.03 0.03 95 1014.9
20260906014149 22 258 0.0 0.0 0.00 0.03 0.03 96 1014.8
20260906013645 22 258 0.0 0.0 0.00 0.03 0.03 96 1014.8
20260906013140 22 246 0.0 0.0 0.00 0.03 0.03 96 1014.8
20260906012639 22 242 0.0 0.0 0.00 0.03 0.03 95 1014.9
20260906012134 23 259 0.0 0.0 0.00 0.03 0.03 94 1014.6
20260906011630 23 251 0.0 0.0 0.00 0.03 0.03 94 1014.6
20260906011125 23 257 0.0 0.0 0.00 0.03 0.03 93 1014.7
20260906010620 23 258 0.0 0.0 0.00 0.03 0.03 93 1014.5
20260906010116 23 258 0.0 0.0 0.00 0.03 0.03 92 1014.5
20260906005610 23 258 0.0 0.0 0.00 0.03 0.03 92 1014.6
20260906005109 23 253 0.0 0.0 0.00 0.03 0.03 92 1014.4
20260906004608 23 252 0.0 0.0 0.00 0.03 0.03 92 1014.3
20260906004103 23 253 0.0 0.0 0.00 0.03 0.03 91 1014.5
20260906003559 23 253 0.0 0.0 0.00 0.03 0.03 91 1014.3
20260906003054 23 255 0.0 0.0 0.00 0.03 0.03 90 1014.1
20260906002549 24 257 0.0 0.0 0.00 0.03 0.03 89 1013.9
20260906002043 24 257 0.0 0.0 0.00 0.03 0.03 89 1013.9
20260906001539 25 257 0.0 0.0 0.00 0.03 0.03 88 1013.9
20260906001033 25 257 0.0 0.0 0.00 0.03 0.03 88 1013.6
20260906000529 25 258 0.0 0.0 0.00 0.03 0.03 86 1013.6
20260906000024 25 258 0.0 0.0 0.00 0.03 0.03 86 1013.5
20260905235518 25 244 0.0 0.0 0.00 0.03 0.03 86 1013.3
20260905235013 25 243 0.0 0.0 0.00 0.03 0.03 86 1013.5
20260905234508 25 243 0.0 0.0 0.00 0.03 0.03 86 1013.6
20260905234003 26 217 0.0 0.0 0.00 0.03 0.03 85 1013.4
20260905233458 26 216 0.0 0.0 0.00 0.03 0.03 83 1013.3
20260905232956 26 141 0.0 0.0 0.00 0.03 0.03 83 1013.4
20260905232453 26 216 0.0 0.0 0.00 0.03 0.03 82 1013.5
20260905231949 26 203 0.0 0.0 0.00 0.03 0.03 81 1013.4
20260905231444 26 241 0.0 0.0 0.00 0.03 0.03 80 1013.5
20260905230940 27 198 0.0 0.0 0.18 0.03 0.03 80 1013.3
20260905230438 27 220 0.0 0.0 0.18 0.03 0.03 79 1013.3
20260905225931 27 153 0.0 0.0 0.00 0.00 0.00 78 1013.6
20260905225427 27 162 0.0 0.0 0.00 0.00 0.00 77 1013.3
20260905224922 27 215 0.0 0.0 0.00 0.00 0.00 76 1013.4
20260905224417 27 172 0.0 0.0 0.00 0.00 0.00 76 1013.5
20260905223916 28 190 0.0 0.0 0.00 0.00 0.00 74 1013.8
20260905223415 28 252 0.0 0.0 0.00 0.00 0.00 71 1013.6
20260905222909 29 252 0.0 0.0 0.00 0.00 0.00 71 1013.4
20260905222408 29 229 0.0 0.0 0.00 0.00 0.00 70 1013.3
20260905221904 29 263 0.0 0.0 0.00 0.00 0.00 68 1013.4
20260905221401 30 233 0.0 0.0 0.00 0.00 0.00 67 1013.3
20260905220856 30 221 0.0 0.0 0.00 0.00 0.00 64 1013.3
20260905220352 31 238 0.0 0.0 0.00 0.00 0.00 64 1013.5
20260905215851 32 246 1.6 1.6 0.00 0.00 0.00 59 1013.4
20260905215347 32 261 0.0 0.0 0.00 0.00 0.00 63 1013.6
20260905214844 31 264 0.0 0.0 0.00 0.00 0.00 68 1014.0
20260905214338 31 264 0.0 0.0 0.00 0.00 0.00 67 1013.5
20260905213828 31 254 0.0 1.6 0.00 0.00 0.00 62 1013.6
20260905213324 30 262 1.6 1.6 0.00 0.00 0.00 61 1013.6
20260905212819 31 253 3.2 4.8 0.00 0.00 0.00 63 1013.6
20260905212318 30 303 1.6 3.2 0.00 0.00 0.00 63 1013.8
20260905211813 31 263 1.6 1.6 0.00 0.00 0.00 64 1013.6
20260905211308 30 224 1.6 1.6 0.00 0.00 0.00 63 1013.6
20260905210805 29 255 0.0 1.6 0.00 0.00 0.00 68 1013.6
20260905210304 28 251 1.6 1.6 0.00 0.00 0.00 68 1013.5
20260905205803 28 267 0.0 1.6 0.00 0.00 0.00 69 1013.4
20260905205258 27 285 1.6 1.6 0.00 0.00 0.00 70 1013.4
20260905204757 27 258 3.2 4.8 0.00 0.00 0.00 71 1013.5
20260905204254 27 256 1.6 3.2 0.00 0.00 0.00 71 1013.4
20260905203752 27 250 3.2 3.2 0.00 0.00 0.00 72 1013.6
20260905203248 27 259 1.6 1.6 0.00 0.00 0.00 72 1013.4
20260905202744 27 251 1.6 3.2 0.00 0.00 0.00 73 1013.9
20260905202238 27 255 1.6 1.6 0.00 0.00 0.00 72 1013.6
20260905201734 27 248 0.0 0.0 0.00 0.00 0.00 71 1013.8
20260905201229 27 293 3.2 3.2 0.00 0.00 0.00 69 1013.8
20260905200724 27 244 3.2 3.2 0.00 0.00 0.00 71 1013.8
20260905200220 27 291 0.0 0.0 0.00 0.00 0.00 73 1014.2
20260905195718 27 261 0.0 1.6 0.00 0.00 0.00 71 1013.9
20260905195212 27 263 1.6 1.6 0.00 0.00 0.00 69 1013.9
20260905194708 27 249 0.0 1.6 0.00 0.00 0.00 69 1013.8
20260905194208 27 275 0.0 0.0 0.00 0.00 0.00 72 1013.9
20260905193702 27 262 0.0 0.0 0.00 0.00 0.00 72 1014.0
20260905193157 27 263 0.0 0.0 0.00 0.00 0.00 72 1014.1
20260905192653 27 265 0.0 0.0 0.00 0.00 0.00 71 1014.1
20260905192149 27 246 1.6 1.6 0.00 0.00 0.00 67 1014.0
20260905191648 27 241 3.2 3.2 0.00 0.00 0.00 67 1013.8
20260905191146 27 246 1.6 3.2 0.00 0.00 0.00 68 1013.9
20260905190645 27 315 1.6 1.6 0.00 0.00 0.00 66 1013.8
20260905190144 27 246 3.2 3.2 0.00 0.00 0.00 68 1013.8
20260905185643 27 250 0.0 0.0 0.00 0.00 0.00 70 1013.6
20260905185138 27 271 0.0 0.0 0.00 0.00 0.00 68 1013.9
20260905184632 27 219 0.0 0.0 0.00 0.00 0.00 73 1014.0
20260905184131 27 219 0.0 0.0 0.00 0.00 0.00 73 1014.0
20260905183630 26 217 4.8 8.0 0.00 0.00 0.00 69 1014.2
20260905183126 26 275 0.0 1.6 0.00 0.00 0.00 75 1014.5
20260905182625 26 247 1.6 1.6 0.00 0.00 0.00 72 1014.1
20260905182125 26 228 1.6 1.6 0.00 0.00 0.00 73 1015.0
20260905181620 26 261 1.6 1.6 0.00 0.00 0.00 72 1014.5
20260905181119 27 229 0.0 1.6 0.00 0.00 0.00 70 1014.3
20260905180614 27 263 0.0 0.0 0.00 0.00 0.00 70 1014.6
20260905180110 27 263 0.0 0.0 0.00 0.00 0.00 69 1014.8
20260905175609 27 263 0.0 0.0 0.00 0.00 0.00 76 1015.4
20260905175104 27 262 1.6 1.6 0.00 0.00 0.00 74 1015.8
20260905174600 27 262 0.0 0.0 0.00 0.00 0.00 73 1016.0
20260905174055 28 265 1.6 1.6 0.00 0.00 0.00 72 1016.2
20260905173551 28 68 0.0 0.0 0.00 0.00 0.00 73 1016.2
20260905173047 30 73 3.2 3.2 0.00 0.00 0.00 69 1016.3
20260905172545 30 68 0.0 0.0 0.00 0.00 0.00 65 1016.1
20260905172040 31 216 0.0 0.0 0.00 0.00 0.00 70 1016.1
20260905171537 32 274 1.6 1.6 0.00 0.00 0.00 69 1015.2
20260905171033 32 238 0.0 0.0 0.00 0.00 0.00 67 1015.3
20260905170529 32 244 0.0 0.0 0.00 0.00 0.00 65 1015.3
20260905170024 32 267 1.6 1.6 0.00 0.00 0.00 66 1015.4
20260905165519 32 243 1.6 1.6 0.00 0.00 0.00 65 1015.6
20260905165014 32 255 3.2 4.8 0.00 0.00 0.00 66 1015.8
20260905164508 33 231 1.6 3.2 0.00 0.00 0.00 66 1016.0
20260905164003 33 219 0.0 0.0 0.00 0.00 0.00 66 1015.8
20260905163459 33 201 0.0 0.0 0.00 0.00 0.00 64 1015.7
20260905162955 33 212 1.6 1.6 0.00 0.00 0.00 64 1015.7
20260905162450 33 199 1.6 3.2 0.00 0.00 0.00 64 1015.8
20260905161945 35 213 1.6 1.6 0.00 0.00 0.00 63 1015.7
20260905161444 34 122 0.0 1.6 0.00 0.00 0.00 61 1015.9
20260905160942 33 187 0.0 1.6 0.00 0.00 0.00 62 1015.7
20260905160436 33 193 0.0 0.0 0.00 0.00 0.00 66 1015.8
20260905155936 32 213 0.0 0.0 0.00 0.00 0.00 68 1015.8
20260905155431 32 180 0.0 0.0 0.00 0.00 0.00 67 1016.1
20260905154930 32 232 1.6 1.6 0.00 0.00 0.00 67 1016.2
20260905154425 32 98 4.8 4.8 0.00 0.00 0.00 65 1016.1
20260905153921 31 210 1.6 1.6 0.00 0.00 0.00 67 1016.1
20260905153417 32 231 1.6 3.2 0.00 0.00 0.00 68 1016.2
20260905152916 31 183 1.6 1.6 0.00 0.00 0.00 70 1016.0
20260905152415 31 220 1.6 1.6 0.00 0.00 0.00 74 1016.0
20260905151911 30 237 1.6 1.6 0.00 0.00 0.00 72 1015.7
20260905151406 30 243 0.0 0.0 0.00 0.00 0.00 75 1015.8
20260905150901 29 262 0.0 0.0 0.00 0.00 0.00 78 1015.8
20260905150401 29 189 0.0 0.0 0.00 0.00 0.00 81 1016.1
20260905145858 28 220 0.0 0.0 0.00 0.00 0.00 78 1015.8
20260905145358 28 282 0.0 0.0 0.00 0.00 0.00 82 1016.2
20260905144852 28 272 0.0 0.0 0.00 0.00 0.00 80 1016.0
20260905144348 28 242 0.0 0.0 0.00 0.00 0.00 79 1016.1
20260905143846 28 250 1.6 1.6 0.00 0.00 0.00 80 1015.9
20260905143340 28 251 1.6 1.6 0.00 0.00 0.00 81 1016.1
20260905142839 27 241 0.0 0.0 0.00 0.00 0.00 82 1016.2
20260905142332 27 265 0.0 0.0 0.00 0.00 0.00 85 1016.3
20260905141829 27 252 0.0 0.0 0.00 0.00 0.00 86 1016.1
20260905141324 27 235 0.0 1.6 0.00 0.00 0.00 88 1015.9
20260905140820 26 246 0.0 0.0 0.00 0.00 0.00 89 1016.0
20260905140319 26 243 0.0 0.0 0.00 0.00 0.00 90 1016.1
20260905135818 26 235 0.0 0.0 0.00 0.00 0.00 91 1016.0
20260905135314 25 232 0.0 0.0 0.00 0.00 0.00 92 1016.0
20260905134809 25 236 0.0 0.0 0.00 0.00 0.00 92 1015.9
20260905134303 25 244 0.0 0.0 0.00 0.00 0.00 94 1016.1
20260905133802 24 249 0.0 0.0 0.00 0.00 0.00 95 1016.1
20260905133258 24 238 0.0 0.0 0.00 0.00 0.00 96 1016.1
20260905132757 23 216 0.0 0.0 0.00 0.00 0.00 97 1016.1
20260905132253 23 248 0.0 0.0 0.00 0.00 0.00 97 1016.2
20260905131748 23 230 0.0 0.0 0.00 0.00 0.00 98 1016.4
20260905131243 23 236 0.0 0.0 0.00 0.00 0.00 98 1016.1
20260905130738 22 244 0.0 0.0 0.00 0.00 0.00 99 1016.7
20260905130237 22 239 0.0 0.0 0.00 0.00 0.00 99 1016.2
20260905125733 22 234 0.0 0.0 0.00 0.00 0.00 99 1016.3
20260905125228 22 248 0.0 0.0 0.00 0.00 0.00 99 1016.2
20260905124724 22 249 0.0 0.0 0.00 0.00 0.00 99 1016.4
20260905124220 21 264 0.0 0.0 0.00 0.00 0.00 99 1016.3
20260905123714 21 254 0.0 0.0 0.00 0.00 0.00 99 1016.3
20260905123212 21 249 0.0 0.0 0.00 0.00 0.00 99 1016.3
20260905122711 21 214 0.0 0.0 0.00 0.00 0.00 99 1016.4
20260905122206 21 262 0.0 0.0 0.00 0.00 0.00 99 1016.2
20260905121700 21 259 0.0 1.6 0.00 0.00 0.00 99 1016.3
20260905121156 21 263 0.0 0.0 0.00 0.00 0.00 99 1016.6
20260905120655 21 246 0.0 0.0 0.00 0.00 0.00 99 1016.2
20260905120150 21 263 0.0 0.0 0.00 0.00 0.00 99 1016.3
20260905115650 21 252 0.0 0.0 0.00 0.00 0.00 99 1016.3
20260905115145 21 249 0.0 0.0 0.00 0.00 0.00 99 1016.4
20260905114645 21 250 0.0 0.0 0.00 0.00 0.00 99 1016.3
20260905114143 20 244 0.0 0.0 0.00 0.00 0.00 99 1016.0
20260905113637 20 248 0.0 0.0 0.00 0.00 0.00 99 1016.3
20260905113133 20 264 0.0 0.0 0.00 0.00 0.00 99 1016.2
20260905112627 20 264 0.0 0.0 0.00 0.00 0.00 99 1016.0
20260905112124 21 264 0.0 0.0 0.00 0.00 0.00 99 1015.8
20260905111618 21 262 0.0 0.0 0.00 0.00 0.00 99 1015.7
20260905111117 21 264 1.6 1.6 0.00 0.00 0.00 99 1015.7
20260905110616 20 254 0.0 0.0 0.00 0.00 0.00 99 1015.6
20260905110112 20 264 0.0 1.6 0.00 0.00 0.00 99 1015.8
20260905105612 20 263 0.0 0.0 0.00 0.00 0.00 99 1015.6
20260905105111 20 264 0.0 1.6 0.00 0.00 0.00 99 1015.7
20260905104606 20 250 0.0 0.0 0.00 0.00 0.00 99 1015.6
20260905104101 20 250 0.0 0.0 0.00 0.00 0.00 99 1015.6
20260905103556 20 250 0.0 1.6 0.00 0.00 0.00 99 1015.7
20260905103053 20 250 0.0 1.6 0.00 0.00 0.00 99 1015.7
20260905102548 20 264 0.0 0.0 0.00 0.00 0.00 99 1015.5
20260905102045 20 263 1.6 1.6 0.00 0.00 0.00 99 1015.4
20260905101543 21 256 0.0 0.0 0.00 0.00 0.00 99 1015.5
20260905101041 20 252 0.0 0.0 0.00 0.00 0.00 99 1015.5
20260905100538 20 264 0.0 0.0 0.00 0.00 0.00 99 1015.7
20260905100037 20 264 0.0 0.0 0.00 0.00 0.00 99 1015.7
20260905095532 20 264 0.0 0.0 0.00 0.00 0.00 99 1015.6
20260905095027 21 264 0.0 0.0 0.00 0.00 0.00 99 1015.4
20260905094522 21 264 0.0 0.0 0.00 0.00 0.00 99 1015.4
20260905094021 21 264 0.0 0.0 0.00 0.00 0.00 99 1015.3
20260905093516 21 264 0.0 0.0 0.00 0.00 0.00 99 1015.3